Weather History for Waco, TX

Change the Weather History Date:

Tuesday, October 29, 2013

  Actual Average Record
Temperature  
Mean Temperature 74 °F 64 °F  
Max Temperature 81 °F 76 °F 91 °F (1937)
Min Temperature 66 °F 53 °F 30 °F (2012)
Degree Days  
Heating Degree Days 0 4  
Month to date heating degree days 48 55  
Since 1 July heating degree days 48 61  
Cooling Degree Days 9 3  
Month to date cooling degree days 135 155  
Year to date cooling degree days 2842 2749  
Growing Degree Days 24 (Base 50)    
Moisture  
Dew Point 67 °F    
Average Humidity 85    
Maximum Humidity 100    
Minimum Humidity 69    
Precipitation  
Precipitation T in 0.11 in 1.44 in (1967)
Month to date precipitation 6.59 3.67  
Year to date precipitation 33.45 28.89  
Snow  
Snow 0.00 in 0.00 in T in (1993)
Month to date snowfall 0.0 0.0  
Since 1 July snowfall 0.0 0.0  
Since 1 September snowfall 0.0 0.0  
Snow Depth 0.00 in    
Sea Level Pressure  
Sea Level Pressure 30.04 in    
Wind  
Wind Speed 10 mph (SSE)    
Max Wind Speed 21 mph    
Max Gust Speed 28 mph    
Visibility 9 miles    
Events Rain    
T = Trace of Precipitation, MM = Missing Value Source: NWS Daily Summary

Daily Weather History Graph

Daily Weather History Graph

Search for Another Location

Airport:

Trip Planner

Search our weather history database for the weather conditions in past years. The results will help you decide how hot, cold, wet, or windy it might be!

Date:

Astronomy

Oct. 29, 2013 Rise Set
Actual Time 7:42 AM CDT 6:41 PM CDT
Civil Twilight 7:17 AM CDT 7:06 PM CDT
Nautical Twilight 6:49 AM CDT 7:35 PM CDT
Astronomical Twilight 6:20 AM CDT 8:04 PM CDT
Moon 2:52 AM CDT (10/29) 3:40 PM CDT (10/29)
Length of Visible Light 11h 49m
Length of Day
10h 59m
Waning Crescent, 25% of the Moon is Illuminated
Oct 29
Waning Crescent
Nov 3
New
Nov 9
First Quarter
Nov 17
Full
Nov 25
Last Quarter

Hourly Weather History & Observations

Time (CDT) Temp. Heat Index Dew Point Humidity Pressure Visibility Wind Dir Wind Speed Gust Speed Precip Events Conditions
12:51 AM 70.0 °F - 64.9 °F 84% 30.04 in 10.0 mi SSE 11.5 mph - N/A   Clear
1:51 AM 68.0 °F - 64.9 °F 90% 30.04 in 10.0 mi SSE 10.4 mph - N/A   Clear
2:51 AM 68.0 °F - 64.9 °F 90% 30.04 in 10.0 mi SE 9.2 mph - N/A   Clear
3:51 AM 66.9 °F - 64.9 °F 93% 30.03 in 9.0 mi SSE 8.1 mph - N/A   Scattered Clouds
4:51 AM 68.0 °F - 66.0 °F 93% 30.04 in 10.0 mi South 8.1 mph - N/A   Overcast
5:26 AM 68.0 °F - 66.2 °F 94% 30.06 in 10.0 mi SSE 6.9 mph - N/A   Overcast
5:51 AM 68.0 °F - 66.0 °F 93% 30.05 in 9.0 mi SSE 6.9 mph - N/A   Overcast
6:51 AM 66.9 °F - 64.9 °F 93% 30.05 in 7.0 mi ESE 5.8 mph - N/A   Overcast
7:51 AM 66.9 °F - 66.0 °F 97% 30.05 in 6.0 mi SE 5.8 mph - N/A   Overcast
8:51 AM 66.9 °F - 66.0 °F 97% 30.06 in 5.0 mi SE 9.2 mph - N/A   Overcast
9:51 AM 68.0 °F - 66.9 °F 96% 30.08 in 4.0 mi SSE 8.1 mph - 0.00 in   Overcast
10:19 AM 68.0 °F - 66.2 °F 94% 30.09 in 3.0 mi SSE 9.2 mph - 0.00 in Rain Light Rain
10:28 AM 68.0 °F - 66.2 °F 94% 30.10 in 5.0 mi SSE 8.1 mph - 0.00 in   Overcast
10:41 AM 68.0 °F - 66.2 °F 94% 30.10 in 6.0 mi SSE 10.4 mph - 0.00 in   Overcast
10:51 AM 68.0 °F - 66.9 °F 96% 30.08 in 7.0 mi SSE 10.4 mph - 0.00 in   Overcast
11:51 AM 70.0 °F - 68.0 °F 93% 30.06 in 10.0 mi SSE 11.5 mph - N/A   Overcast
12:22 PM 71.6 °F - 68.0 °F 88% 30.07 in 10.0 mi South 12.7 mph - N/A   Overcast
12:36 PM 71.6 °F - 68.0 °F 88% 30.07 in 10.0 mi SSE 10.4 mph - N/A   Overcast
12:51 PM 71.1 °F - 68.0 °F 90% 30.05 in 10.0 mi SSE 11.5 mph - N/A   Overcast
1:51 PM 75.0 °F - 70.0 °F 84% 30.01 in 10.0 mi SSE 11.5 mph - N/A   Overcast
2:51 PM 77.0 °F - 70.0 °F 79% 29.99 in 10.0 mi SSE 8.1 mph - N/A   Mostly Cloudy
3:51 PM 79.0 °F - 70.0 °F 74% 29.98 in 10.0 mi SE 12.7 mph - N/A   Overcast
4:51 PM 80.1 °F 82.9 °F 69.1 °F 69% 29.97 in 10.0 mi SSE 10.4 mph - N/A   Partly Cloudy
5:51 PM 78.1 °F - 69.1 °F 74% 29.98 in 10.0 mi SE 9.2 mph - N/A   Partly Cloudy
6:51 PM 75.9 °F - 69.1 °F 79% 29.98 in 10.0 mi SE 9.2 mph - N/A   Mostly Cloudy
7:51 PM 75.0 °F - 68.0 °F 79% 30.00 in 10.0 mi SE 6.9 mph - N/A   Scattered Clouds
8:51 PM 73.9 °F - 68.0 °F 82% 30.01 in 10.0 mi SE 10.4 mph - N/A   Clear
9:51 PM 72.0 °F - 66.9 °F 84% 30.02 in 10.0 mi SSE 10.4 mph - N/A   Clear
10:51 PM 73.0 °F - 66.9 °F 81% 30.03 in 10.0 mi SSE 12.7 mph - N/A   Clear
11:51 PM 72.0 °F - 66.9 °F 84% 30.02 in 10.0 mi SSE 16.1 mph 26.5 mph N/A   Clear